CZ-6A DEB

Satellite information

Favourite Embed

Satellite Type and Status

DEBRISIN ORBIT

Key statistics

Satellite CZ-6A DEB at a glance.

Uptime

1129

Days in orbit

Revolutions

≈ 14.3

Per day

Orbit

SSO

Sun Synchronous Orbit

Inclination

98.8

Latest

Satellite identification and parameters

Extended collection of information and parameters for CZ-6A DEB.

Object identification

Identified? True

Debris? True

Object name: CZ-6A DEB

International designator: 2022-151SE

Object number (NORAD): 54941

Object ID (CCSDS): 54941

Country: PEOPLES REPUBLIC OF CHINA (PRC)

Current information (Y/N): Y

RCS size: SMALL

Orbital parameters

Period: 100.652 minutes

Inclination: 98.8054 deg

SMA: 7167.645 km

Apoapsis: 816.548 km

Periapsis: 762.472 km

RAAN: 358.8339 deg

Eccentricy: 0.00377222

Argument of periapsis: 97.4046 deg

Mean anomaly: 263.1425 deg

Mean motion: 14.30665169 rev/day

Mean motion (dot): 0.00013385 rev/day2

B* drag term: 0.0050892869 1/REarth

Two-line elements (TLE)

Creation date: Dec. 13, 2025, 5:47 p.m.

Reference frame: TEME

Reference center: EARTH

Epoch: Dec. 13, 2025, 7:06 a.m. UTC

TLE line 0: 0 CZ-6A DEB

TLE line 1: 1 54941U 22151SE 25347.29588488 .00013385 00000-0 50893-2 0 9994

TLE line 2: 2 54941 98.8054 358.8339 0037722 97.4046 263.1425 14.30665169157589

Live tracking on map

Real-time ground track for satellite CZ-6A DEB.

In-orbit conjunctions

A list of the most updated potential collisions computed for object CZ-6A DEB.

Target Orbit TCA Probability of collision Miss distance Type
CZ-6A DEB LEO 2025-06-01 07:03:26 0.000734684 22.0 (m) DEBRIS
CZ-6A R/B SSO 2024-05-31 13:18:20 0.0002098956 640.0 (m) ROCKET BODY

Associated space launch

Chinese satellite reported for atmospheric/ocean/environmental/spatial parameter research purposes, details TBD.

CZ-6A DEB was lifted into orbit during the mission ‘Long March 6A | Yunhai 3’, on board a Long March 6A space rocket.

The launch took place on Nov. 11, 2022, 10:52 p.m. from Launch Complex 9A.

For more information about the launch, click the button.

Launch to space Long March 6A | Yunhai 3
Long March 6A | Yunhai 3

Agency: N/A

Status: Launch Successful

Launch date: Nov. 11, 2022, 10:52 p.m. UTC

Rocket: Long March 6A

Launch pad: Launch Complex 9A

Location: Taiyuan Satellite Launch Center, People's Republic of China

...

Latest news about this satellite

There are no fresh news available about this satellite. Check back as we update our databases every day.


Newsletter sign-up

Weekly statistics, charts and insights to help you stay on top of the space industry.